Weather in Ayti-Mokhk

Russia / Chechen Republic     43°05′25″N   46°20′48″E
temp.,
°C
wind,
m/s
gust,
m/s
humid.,
%
clouds,
%
prec.,
mm/h
press.,
hPa
HPBL,
m
18 april, sun
sun1800:00+9n1188100 0.0 102198
03:00+8nne009487 0.0 102170
06:00+8ne0192100 0.0 102077
09:00+14nne2265100 0.0 1017518
12:00+16n325813 0.1 1015881
15:00+15nne216889 1.3 1016844
18:00+13sse1182100 0.9 101784
21:00+11sse5780100 5.3 1018268
19 april, mon
mon1900:00+10sse2281100 0.1 101728
03:00+11sse2276100 0.1 101614
06:00+11sse117398 0.0 101611
09:00+16n225733 0.0 1016656
12:00+17nne445565 0.1 10151124
15:00+18nne435099 0.1 10141169
18:00+14n1167100 0.0 101446
21:00+12s117453 0.0 101412
20 april, tue
tue2000:00+12sse227397 0.0 101321
03:00+13s326440 0.0 101223
06:00+13sse226478 0.0 101226
09:00+21ene1342100 0.0 1009526
12:00+27ne232963 0.0 10051260
15:00+27nw2328100 0.0 10031358
18:00+20nw0161100 0.0 100614
21:00+17w1265100 0.0 100840
21 april, wed
wed2100:00+15w2276100 0.3 100955
03:00+13wnw2787100 0.4 1012406
06:00+11wnw2796100 0.2 1015618
09:00+9wnw3793100 0.4 1018729
12:00+8wnw3691100 0.3 1020816
15:00+7nw2390100 1.1 1022577
18:00+7w1290100 0.4 1023381
21:00+7w1292100 1.3 1023365
22 april, thu
thu2200:00+7wnw1194100 0.3 1022127
03:00+6w119399 0.3 1022116
06:00+6wnw1193100 0.0 1022115
09:00+7wnw0190100 0.0 1022187
12:00+7nw2291100 0.1 1022467
15:00+7wnw1291100 0.3 1023482
18:00+6sw1291100 0.1 1024200
21:00+6ssw1292100 0.4 1024100